Weather Roundup
Issued by NWS Corpus Christi, TX

Home | Current Version | Previous Version | Text Only | Print | Product List | Glossary On
Versions: 1 2 3 4 5 6 7 8 9 10 11 12 13 14 15 16 17 18 19 20 21 22 23 24 25 26 27 28 29 30 31 32 33 34 35 36 37 38 39 40 41 42 43 44 45 46 47 48 49 50
000
ASUS44 KCRP 290910
HRRCRP

SOUTH TEXAS REGIONAL WEATHER ROUNDUP
NATIONAL WEATHER SERVICE CORPUS CHRISTI TX
300 AM CST SAT NOV 29 2014


TXZ229>244-291000-
...CORPUS CHRISTI AREA OBSERVATIONS...

CITY           SKY/WX    TMP DP  RH WIND       PRES   REMARKS
CORPUS CHRISTI CLEAR     58  56  93 S6        30.09F
NAS CORPUS CHR CLEAR     64  62  93 S8        30.09F
ROCKPORT       CLEAR     63  60  90 VRB5      30.09F
KINGSVILLE NAS CLEAR     58  57  97 S6        30.09F
ALICE          CLEAR     54  53  97 SW6       30.09F
FALFURRIAS     CLEAR     55  54  94 S3        30.09F
$$

...VICTORIA AREA OBSERVATIONS...

CITY           SKY/WX    TMP DP  RH WIND       PRES   REMARKS
VICTORIA       FOG       55  54  96 S6        30.10F VSB 1/4
BEEVILLE       FAIR      56  56 100 S6        30.09F
PLEASANTON     CLEAR     55  53  94 S3        30.10S
SAN ANTONIO    CLEAR     57  53  86 SW8       30.08F
$$

...LAREDO AREA OBSERVATIONS...

CITY           SKY/WX    TMP DP  RH WIND       PRES   REMARKS
LAREDO         CLEAR     58  58 100 SE7       30.09F
COTULLA        CLEAR     54  50  86 SE6       30.08F
DEL RIO        CLEAR     50  45  83 E8        30.04S
MCALLEN        CLEAR     59  57  93 SE8       30.09F
HEBBRONVILLE   CLEAR     54  53  96 S5        30.09F
$$

...OTHER TEXAS OBSERVATIONS...

CITY           SKY/WX    TMP DP  RH WIND       PRES   REMARKS
BROWNSVILLE    CLEAR     64  60  87 S9        30.10F
HOUSTON        PTCLDY    62  59  90 S6        30.09F
COL. STATION   CLEAR     54  53  97 S8        30.07F
AUSTIN         CLEAR     56  53  90 S10       30.06F
WACO           CLEAR     55  50  83 S12       30.01F
FORT WORTH     PTCLDY    52  46  80 S13       29.94F
WICHITA FALLS  CLEAR     55  42  61 SW15      29.85R
LUBBOCK        PTCLDY    44  21  40 W10       29.92S
EL PASO        CLEAR     42  19  39 CALM      30.05S
$$

...MARINE OBSERVATIONS...

STATION/POSITION TIME  SKY/WX   TEMP    WIND        PRES    VSBY  WAVE   SWELL
                                AIR SEA DIR/SP/G                  HT/PER HT/PER
                 (UTC)          (F)     (DEG/KT/KT) (MB)    (MI)  (FT/S) (FT/S)
PORT ARANSAS     0900            67 64  180/ 11/ 12 1019.6F
BUOY 90 E PORT A 0900            72 72  180/ 19/ 23 1020.1F         5/ 5
BUOY 45 SE BAFFI 0900            72 73  180/ 19/ 23 1018.9F         5/ 5
BUOY 200 E PT IS 0900            71 74  170/ 14/ 17 1021.2F         3/ 4   2/ 7
BUOY 15 E GALVES 0900            64 61  180/ 10/ 12 1019.5F         2/ 4
$$


USA.gov is the U.S. government's official web portal to all federal, state and local government web resources and services.